Location: York
(31.8935°S, 116.7682°E)
Time: 17:53:55
(UTC+08:00)

deb Explorer IX - Pass Details

Date: 04 October 2022
Orbit: 533 x 1057 km, 38.8° (Epoch: 30 November)

Event Time Altitude Azimuth Distance (km) Brightness Sun altitude
Rises 20:19:44 0° 256° (WSW) 3,480 ? -26.0°
Reaches altitude 10° 20:22:39 10° 249° (WSW) 2,448 ? -26.6°
Maximum altitude 20:28:00 39° 180° (S) 1,113 ? -27.6°
Enters shadow 20:28:34 38° 165° (SSE) 1,123 ? -27.7°
Drops below altitude 10° 20:32:38 10° 111° (ESE) 2,110 - -28.5°
Sets 20:34:59 0° 102° (ESE) 2,945 - -28.9°
